Preview of NWS' New Version of Forecast
This preview is not operational and should not be used for support decisions.

Regional Weather Roundup (RWR)

Issued by National Weather Service (NWS)

                            
000
ASUS44 KMEG 261010
RWRTN 
TENNESSEE HOURLY STATE WEATHER ROUNDUP
NATIONAL WEATHER SERVICE MEMPHIS TN
500 AM CDT SUN MAY 26 2019

TNZ002-004-019-021-049-052-054-088>092-261100-
WEST TENNESSEE
  
CITY           SKY/WX    TMP DP  RH WIND       PRES   REMARKS
MEMPHIS INTL   FAIR      73  66  78 SW7       30.10R                  
NWS MEMPHIS      N/A     71 N/A N/A MISG        N/A                   
JACKSON        FAIR      68  64  87 S6        30.11R                  
DYERSBURG      FAIR      76  66  71 SW7       30.09R                  
SOMERVILLE     CLEAR     70  64  83 CALM      30.09S                  
COVINGTON      PTCLDY    72  66  83 CALM      30.09R                  
UNION CITY     CLOUDY    73  66  78 CALM      30.07R                  
BOLIVAR        CLEAR     68  64  88 SE3       30.10R                  
PARIS          CLEAR     70  64  83 CALM      30.10R                  
HUNTINGDON     CLEAR     66  64  94 CALM      30.10R                  
LEXINGTON      CLEAR     64  64 100 CALM      30.11R FOG              
SELMER         CLEAR     66  64  94 CALM      30.11R                  
SAVANNAH       CLEAR     68  66  94 CALM      30.11R                  
$$

TNZ008-025-027-028-033-062-065-066-261100-
NORTH MIDDLE TENNESSEE
  
CITY           SKY/WX    TMP DP  RH WIND       PRES   REMARKS
NASHVILLE      FAIR      71  64  78 S3        30.12R                  
DICKSON        SUNNY     70  64  83 SW5       30.11R                  
CLARKSVILLE    FAIR      65  63  93 CALM      30.10R                  
LEBANON        PTSUNNY   66  64  94 CALM      30.11R                  
SMYRNA         FAIR      66  66 100 CALM      30.14R                  
MURFREESBORO   PTSUNNY   68  64  88 CALM      30.11R                  
COOKEVILLE     MOCLDY    61  61 100 CALM      30.15R FOG              
LIVINGSTON     SUNNY     72  63  73 SW5       30.15R                  
CROSSVILLE     FAIR      62  60  93 CALM      30.20R                  
ROCKWOOD       MOSUNNY   68  63  83 W3        30.17S                  
$$

TNZ061-075-076-078-094-096-097-261100-
SOUTH MIDDLE TENNESSEE
  
CITY           SKY/WX    TMP DP  RH WIND       PRES   REMARKS
LAWRENCEBURG   MOSUNNY   66  64  94 CALM      30.14R                  
LEWISBURG      SUNNY     63  63 100 CALM      30.12S                  
FAYETTEVILLE   CLEAR     68  66  94 CALM      30.14R                  
TULLAHOMA      CLEAR     64  63  94 CALM      30.14R                  
WINCHESTER     CLEAR     66  64  94 CALM      30.15R                  
MCMINNVILLE    FOG       63  63 100 CALM      30.15R VSB 0            
COLUMBIA       CLEAR     68  68 100 CALM      30.11R                  
SHELBYVILLE    CLEAR     64  64 100 CALM      30.13R                  
$$

TNZ017-018-042-046-047-261100-
NORTHEAST TENNESSEE
  
CITY           SKY/WX    TMP DP  RH WIND       PRES   REMARKS
TRI CITIES     FAIR      62  60  93 CALM      30.17R                  
ELIZABETHTON   FAIR      63  63 100 CALM      30.18R FOG              
GREENEVILLE    SUNNY     68  63  83 CALM      30.17R                  
$$

TNZ012-013-036-069-073-074-261100-
CENTRAL EAST TENNESSEE
  
CITY           SKY/WX    TMP DP  RH WIND       PRES   REMARKS
KNOXVILLE      NOT AVBL                                               
OAK RIDGE      FAIR      68  64  87 CALM      30.16R                  
DOWNTOWN KNOXV CLEAR     66  66 100 CALM      30.15R FOG              
GATLINBURG     PTCLDY    66  64  94 CALM      30.14S                  
MORRISTOWN     MOCLDY    66  66 100 CALM      30.15R                  
JACKSBORO      CLEAR     63  61  94 CALM      30.18S FOG              
$$

TNZ083-085-099-261100-
SOUTHEAST TENNESSEE
  
CITY           SKY/WX    TMP DP  RH WIND       PRES   REMARKS
CHATTANOOGA    FAIR      70  67  90 CALM      30.14R                  
DAYTON         MOSUNNY   66  66 100 CALM      30.13S FOG              
$$

SKY/WX REPORTED AS FAIR MEANS FEW OR NO CLOUDS BELOW
12 THOUSAND FEET.